User: anonymous   Login
Location: Vancouver
(49.2500°N, 123.1330°W)
Time: 16:11:29
(UTC-07:00)
Language:

BREEZE-M DEB (TANK) - Orbit

View from above orbital plane
View from above orbital plane
View from above satellite
View from above satellite

Ground track
Ground track

The orbit data is extracted from the following two-line orbital elements,

1 27821U 03024B   16235.07075704  .00002146  00000-0  25373-3 0  9992
2 27821  49.5594 182.7742 4946199 161.9034 225.2092  5.73644459263241
Epoch (UTC): 22 August 2016 01:41:53
Eccentricity: 0.4946199
inclination: 49.5594°
perigee height: 283 km
apogee height: 13323 km
right ascension of ascending node: 182.7742°
argument of perigee: 161.9034°
revolutions per day: 5.73644459
mean anomaly at epoch: 225.2092°
orbit number at epoch: 26324

The dashed part of the orbit path shows where the satellite is in the earth's shadow,  

DLR